カタログに戻る

SBS 3 R/B

PAM-D

運用中HEO
NORAD 13658·ROCKET BODY·🇺🇸 United States

打ち上げ Nov 11, 1982 から Cape Canaveral Space Force Station

Loading…

次のパス (今後24時間)

TLE

最新Source: Space-Track

元期: Sep 14, 2026, 10:51 UTC

1 13658U 82110D   26257.45259768 -.00000123  00000-0  44605-3 0  9992
2 13658  23.5715 280.6833 7052519 104.1398 337.3427  2.50513620304564

AllMySatでSBS 3 R/Bをリアルタイム追跡

Download on the App Store